Location: Plainartige
(45.6866°N, 1.7993°E)
Time: 04:59:31
(UTC+00:00)

deb r/b Ablestar - Pass Details

Date: 02 October 2021
Orbit: 844 x 997 km, 67.7° (Epoch: 25 October)

Event Time Altitude Azimuth Distance (km) Brightness Sun altitude
Rises 19:25:17 0° 330° (NNW) 3,414 ? -20.6°
Reaches altitude 10° 19:27:47 10° 335° (NNW) 2,482 ? -21.0°
Maximum altitude 19:33:25 59° 54° (NE) 994 ? -22.0°
Enters shadow 19:34:42 48° 102° (ESE) 1,126 ? -22.2°
